Year,Month,Day,Hour,Minute,Value (Times are PST for temperature in C)
2017,05,03,00,00,10.70
2017,05,03,00,01,10.70
2017,05,03,00,02,10.70
2017,05,03,00,03,10.70
2017,05,03,00,04,10.70
2017,05,03,00,05,10.70
2017,05,03,00,06,10.70
2017,05,03,00,07,10.70
2017,05,03,00,08,10.70
2017,05,03,00,09,10.70
2017,05,03,00,10,10.70
2017,05,03,00,11,10.70
2017,05,03,00,12,10.70
2017,05,03,00,13,10.70
2017,05,03,00,14,10.70
2017,05,03,00,15,10.70
2017,05,03,00,16,10.70
2017,05,03,00,17,10.70
2017,05,03,00,18,10.70
2017,05,03,00,19,10.70
2017,05,03,00,20,10.70
2017,05,03,00,21,10.70
2017,05,03,00,22,10.70
2017,05,03,00,23,10.70
2017,05,03,00,24,10.70
2017,05,03,00,25,10.70
2017,05,03,00,26,10.70
2017,05,03,00,27,10.70
2017,05,03,00,28,10.70
2017,05,03,00,29,10.70
2017,05,03,00,30,10.70
2017,05,03,00,31,10.80
2017,05,03,00,32,10.80
2017,05,03,00,33,10.80
2017,05,03,00,34,10.80
2017,05,03,00,35,10.80
2017,05,03,00,36,10.80
2017,05,03,00,37,10.70
2017,05,03,00,38,10.70
2017,05,03,00,39,10.70
2017,05,03,00,40,10.80
2017,05,03,00,41,10.80
2017,05,03,00,42,10.80
2017,05,03,00,43,10.80
2017,05,03,00,44,10.80
2017,05,03,00,45,10.80
2017,05,03,00,46,10.70
2017,05,03,00,47,10.70
2017,05,03,00,48,10.70
2017,05,03,00,49,10.70
2017,05,03,00,50,10.70
2017,05,03,00,51,10.70
2017,05,03,00,52,10.70
2017,05,03,00,53,10.70
2017,05,03,00,54,10.70
2017,05,03,00,55,10.70
2017,05,03,00,56,10.60
2017,05,03,00,57,10.60
2017,05,03,00,58,10.60
2017,05,03,00,59,10.60
2017,05,03,01,00,10.60
2017,05,03,01,01,10.60
2017,05,03,01,02,10.60
2017,05,03,01,03,10.60
2017,05,03,01,04,10.50
2017,05,03,01,05,10.50
2017,05,03,01,06,10.50
2017,05,03,01,07,10.40
2017,05,03,01,08,10.40
2017,05,03,01,09,10.40
2017,05,03,01,10,10.30
2017,05,03,01,11,10.30
2017,05,03,01,12,10.30
2017,05,03,01,13,10.30
2017,05,03,01,14,10.20
2017,05,03,01,15,10.20
2017,05,03,01,16,10.10
2017,05,03,01,17,10.10
2017,05,03,01,18,10.10
2017,05,03,01,19,10.10
2017,05,03,01,20,10.00
2017,05,03,01,21,10.00
2017,05,03,01,22,10.00
2017,05,03,01,23,10.00
2017,05,03,01,24,10.00
2017,05,03,01,25,10.00
2017,05,03,01,26,10.00
2017,05,03,01,27,9.90
2017,05,03,01,28,9.90
2017,05,03,01,29,9.90
2017,05,03,01,30,9.90
2017,05,03,01,31,9.80
2017,05,03,01,32,9.80
2017,05,03,01,33,9.80
2017,05,03,01,34,9.80
2017,05,03,01,35,9.80
2017,05,03,01,36,9.80
2017,05,03,01,37,9.80
2017,05,03,01,38,9.80
2017,05,03,01,39,9.80
2017,05,03,01,40,9.80
2017,05,03,01,41,9.80
2017,05,03,01,42,9.80
2017,05,03,01,43,9.80
2017,05,03,01,44,9.80
2017,05,03,01,45,9.80
2017,05,03,01,46,9.80
2017,05,03,01,47,9.80
2017,05,03,01,48,9.80
2017,05,03,01,49,9.80
2017,05,03,01,50,9.80
2017,05,03,01,51,9.80
2017,05,03,01,52,9.80
2017,05,03,01,53,9.90
2017,05,03,01,54,9.90
2017,05,03,01,55,9.90
2017,05,03,01,56,9.90
2017,05,03,01,57,9.90
2017,05,03,01,58,9.90
2017,05,03,01,59,9.90
2017,05,03,02,00,9.90
2017,05,03,02,01,9.90
2017,05,03,02,02,9.90
2017,05,03,02,03,9.90
2017,05,03,02,04,9.90
2017,05,03,02,05,9.90
2017,05,03,02,06,9.90
2017,05,03,02,07,9.90
2017,05,03,02,08,9.90
2017,05,03,02,09,9.90
2017,05,03,02,10,9.90
2017,05,03,02,11,9.90
2017,05,03,02,12,9.90
2017,05,03,02,13,9.90
2017,05,03,02,14,9.90
2017,05,03,02,15,9.90
2017,05,03,02,16,9.90
2017,05,03,02,17,9.90
2017,05,03,02,18,9.90
2017,05,03,02,19,9.90
2017,05,03,02,20,9.90
2017,05,03,02,21,9.90
2017,05,03,02,22,10.00
2017,05,03,02,23,10.00
2017,05,03,02,24,10.00
2017,05,03,02,25,10.00
2017,05,03,02,26,10.00
2017,05,03,02,27,10.00
2017,05,03,02,28,10.00
2017,05,03,02,29,9.90
2017,05,03,02,30,9.90
2017,05,03,02,31,9.90
2017,05,03,02,32,9.90
2017,05,03,02,33,9.90
2017,05,03,02,34,9.90
2017,05,03,02,35,9.90
2017,05,03,02,36,9.90
2017,05,03,02,37,9.90
2017,05,03,02,38,9.90
2017,05,03,02,39,9.90
2017,05,03,02,40,9.90
2017,05,03,02,41,9.90
2017,05,03,02,42,9.90
2017,05,03,02,43,9.90
2017,05,03,02,44,9.90
2017,05,03,02,45,9.90
2017,05,03,02,46,9.90
2017,05,03,02,47,9.90
2017,05,03,02,48,9.90
2017,05,03,02,49,9.90
2017,05,03,02,50,9.90
2017,05,03,02,51,9.90
2017,05,03,02,52,9.90
2017,05,03,02,53,9.90
2017,05,03,02,54,9.80
2017,05,03,02,55,9.80
2017,05,03,02,56,9.80
2017,05,03,02,57,9.90
2017,05,03,02,58,9.90
2017,05,03,02,59,9.90
2017,05,03,03,00,9.90
2017,05,03,03,01,9.90
2017,05,03,03,02,9.90
2017,05,03,03,03,9.90
2017,05,03,03,04,9.90
2017,05,03,03,05,9.90
2017,05,03,03,06,9.90
2017,05,03,03,07,9.80
2017,05,03,03,08,9.80
2017,05,03,03,09,9.80
2017,05,03,03,10,9.90
2017,05,03,03,11,9.90
2017,05,03,03,12,9.90
2017,05,03,03,13,9.90
2017,05,03,03,14,9.90
2017,05,03,03,15,9.90
2017,05,03,03,16,9.80
2017,05,03,03,17,9.80
2017,05,03,03,18,9.80
2017,05,03,03,19,9.80
2017,05,03,03,20,9.80
2017,05,03,03,21,9.80
2017,05,03,03,22,9.80
2017,05,03,03,23,9.80
2017,05,03,03,24,9.80
2017,05,03,03,25,9.80
2017,05,03,03,26,9.80
2017,05,03,03,27,9.80
2017,05,03,03,28,9.80
2017,05,03,03,29,9.80
2017,05,03,03,30,9.90
2017,05,03,03,31,9.90
2017,05,03,03,32,9.90
2017,05,03,03,33,9.90
2017,05,03,03,34,9.90
2017,05,03,03,35,9.90
2017,05,03,03,36,9.90
2017,05,03,03,37,9.90
2017,05,03,03,38,9.80
2017,05,03,03,39,9.80
2017,05,03,03,40,9.80
2017,05,03,03,41,9.90
2017,05,03,03,42,9.90
2017,05,03,03,43,9.90
2017,05,03,03,44,9.80
2017,05,03,03,45,9.80
2017,05,03,03,46,9.80
2017,05,03,03,47,9.80
2017,05,03,03,48,9.80
2017,05,03,03,49,9.80
2017,05,03,03,50,9.80
2017,05,03,03,51,9.80
2017,05,03,03,52,9.80
2017,05,03,03,53,9.80
2017,05,03,03,54,9.80
2017,05,03,03,55,9.90
2017,05,03,03,56,9.90
2017,05,03,03,57,9.90
2017,05,03,03,58,9.90
2017,05,03,03,59,9.90
2017,05,03,04,00,9.90
2017,05,03,04,01,9.90
2017,05,03,04,02,9.90
2017,05,03,04,03,9.90
2017,05,03,04,04,9.90
2017,05,03,04,05,9.80
2017,05,03,04,06,9.90
2017,05,03,04,07,9.90
2017,05,03,04,08,9.90
2017,05,03,04,09,9.90
2017,05,03,04,10,9.90
2017,05,03,04,11,9.90
2017,05,03,04,12,9.90
2017,05,03,04,13,9.90
2017,05,03,04,14,9.90
2017,05,03,04,15,9.90
2017,05,03,04,16,9.90
2017,05,03,04,17,9.90
2017,05,03,04,18,10.00
2017,05,03,04,19,10.00
2017,05,03,04,20,10.00
2017,05,03,04,21,10.00
2017,05,03,04,22,10.00
2017,05,03,04,23,10.00
2017,05,03,04,24,10.00
2017,05,03,04,25,10.00
2017,05,03,04,26,10.00
2017,05,03,04,27,10.00
2017,05,03,04,28,10.00
2017,05,03,04,29,10.00
2017,05,03,04,30,9.90
2017,05,03,04,31,9.90
2017,05,03,04,32,9.90
2017,05,03,04,33,9.90
2017,05,03,04,34,9.90
2017,05,03,04,35,9.90
2017,05,03,04,36,9.90
2017,05,03,04,37,9.90
2017,05,03,04,38,9.90
2017,05,03,04,39,9.90
2017,05,03,04,40,9.90
2017,05,03,04,41,9.90
2017,05,03,04,42,9.90
2017,05,03,04,43,10.00
2017,05,03,04,44,10.00
2017,05,03,04,45,9.90
2017,05,03,04,46,10.00
2017,05,03,04,47,9.90
2017,05,03,04,48,9.90
2017,05,03,04,49,9.90
2017,05,03,04,50,9.90
2017,05,03,04,51,9.90
2017,05,03,04,52,9.90
2017,05,03,04,53,9.90
2017,05,03,04,54,9.90
2017,05,03,04,55,9.90
2017,05,03,04,56,10.00
2017,05,03,04,57,9.90
2017,05,03,04,58,10.00
2017,05,03,04,59,9.90
2017,05,03,05,00,9.90
2017,05,03,05,01,9.90
2017,05,03,05,02,9.90
2017,05,03,05,03,9.90
2017,05,03,05,04,9.90
2017,05,03,05,05,9.90
2017,05,03,05,06,9.90
2017,05,03,05,07,9.90
2017,05,03,05,08,10.00
2017,05,03,05,09,9.90
2017,05,03,05,10,9.90
2017,05,03,05,11,9.90
2017,05,03,05,12,9.90
2017,05,03,05,13,9.90
2017,05,03,05,14,9.90
2017,05,03,05,15,9.90
2017,05,03,05,16,9.90
2017,05,03,05,17,9.90
2017,05,03,05,18,9.90
2017,05,03,05,19,9.90
2017,05,03,05,20,9.90
2017,05,03,05,21,9.90
2017,05,03,05,22,9.90
2017,05,03,05,23,9.90
2017,05,03,05,24,9.90
2017,05,03,05,25,9.90
2017,05,03,05,26,9.90
2017,05,03,05,27,9.90
2017,05,03,05,28,9.90
2017,05,03,05,29,9.90
2017,05,03,05,30,9.90
2017,05,03,05,31,9.90
2017,05,03,05,32,9.90
2017,05,03,05,33,9.90
2017,05,03,05,34,9.90
2017,05,03,05,35,9.90
2017,05,03,05,36,9.90
2017,05,03,05,37,10.00
2017,05,03,05,38,10.00
2017,05,03,05,39,10.00
2017,05,03,05,40,10.00
2017,05,03,05,41,10.00
2017,05,03,05,42,10.00
2017,05,03,05,43,10.00
2017,05,03,05,44,10.00
2017,05,03,05,45,10.00
2017,05,03,05,46,10.10
2017,05,03,05,47,10.10
2017,05,03,05,48,10.10
2017,05,03,05,49,10.10
2017,05,03,05,50,10.10
2017,05,03,05,51,10.10
2017,05,03,05,52,10.10
2017,05,03,05,53,10.10
2017,05,03,05,54,10.10
2017,05,03,05,55,10.10
2017,05,03,05,56,10.10
2017,05,03,05,57,10.00
2017,05,03,05,58,10.00
2017,05,03,05,59,10.00
2017,05,03,06,00,10.00
2017,05,03,06,01,10.00
2017,05,03,06,02,10.00
2017,05,03,06,03,10.00
2017,05,03,06,04,10.00
2017,05,03,06,05,10.00
2017,05,03,06,06,10.00
2017,05,03,06,07,10.00
2017,05,03,06,08,10.00
2017,05,03,06,09,10.00
2017,05,03,06,10,10.00
2017,05,03,06,11,10.00
2017,05,03,06,12,10.00
2017,05,03,06,13,10.00
2017,05,03,06,14,10.00
2017,05,03,06,15,10.00
2017,05,03,06,16,10.00
2017,05,03,06,17,10.00
2017,05,03,06,18,10.00
2017,05,03,06,19,10.00
2017,05,03,06,20,10.00
2017,05,03,06,21,10.00
2017,05,03,06,22,10.00
2017,05,03,06,23,10.00
2017,05,03,06,24,10.00
2017,05,03,06,25,10.00
2017,05,03,06,26,10.00
2017,05,03,06,27,10.00
2017,05,03,06,28,10.00
2017,05,03,06,29,10.00
2017,05,03,06,30,10.00
2017,05,03,06,31,10.10
2017,05,03,06,32,10.10
2017,05,03,06,33,10.10
2017,05,03,06,34,10.10
2017,05,03,06,35,10.10
2017,05,03,06,36,10.10
2017,05,03,06,37,10.10
2017,05,03,06,38,10.10
2017,05,03,06,39,10.10
2017,05,03,06,40,10.10
2017,05,03,06,41,10.10
2017,05,03,06,42,10.00
2017,05,03,06,43,10.00
2017,05,03,06,44,10.00
2017,05,03,06,45,10.00
2017,05,03,06,46,10.00
2017,05,03,06,47,10.00
2017,05,03,06,48,10.00
2017,05,03,06,49,10.00
2017,05,03,06,50,10.00
2017,05,03,06,51,10.10
2017,05,03,06,52,10.10
2017,05,03,06,53,10.10
2017,05,03,06,54,10.10
2017,05,03,06,55,10.10
2017,05,03,06,56,10.10
2017,05,03,06,57,10.10
2017,05,03,06,58,10.10
2017,05,03,06,59,10.10
2017,05,03,07,00,10.10
2017,05,03,07,01,10.10
2017,05,03,07,02,10.10
2017,05,03,07,03,10.10
2017,05,03,07,04,10.10
2017,05,03,07,05,10.10
2017,05,03,07,06,10.10
2017,05,03,07,07,10.10
2017,05,03,07,08,10.10
2017,05,03,07,09,10.10
2017,05,03,07,10,10.10
2017,05,03,07,11,10.10
2017,05,03,07,12,10.10
2017,05,03,07,13,10.20
2017,05,03,07,14,10.20
2017,05,03,07,15,10.20
2017,05,03,07,16,10.20
2017,05,03,07,17,10.20
2017,05,03,07,18,10.20
2017,05,03,07,19,10.20
2017,05,03,07,20,10.20
2017,05,03,07,21,10.20
2017,05,03,07,22,10.20
2017,05,03,07,23,10.20
2017,05,03,07,24,10.20
2017,05,03,07,25,10.20
2017,05,03,07,26,10.20
2017,05,03,07,27,10.20
2017,05,03,07,28,10.20
2017,05,03,07,29,10.20
2017,05,03,07,30,10.30
2017,05,03,07,31,10.30
2017,05,03,07,32,10.30
2017,05,03,07,33,10.30
2017,05,03,07,34,10.30
2017,05,03,07,35,10.30
2017,05,03,07,36,10.30
2017,05,03,07,37,10.30
2017,05,03,07,38,10.30
2017,05,03,07,39,10.30
2017,05,03,07,40,10.30
2017,05,03,07,41,10.30
2017,05,03,07,42,10.30
2017,05,03,07,43,10.30
2017,05,03,07,44,10.30
2017,05,03,07,45,10.30
2017,05,03,07,46,10.40
2017,05,03,07,47,10.40
2017,05,03,07,48,10.40
2017,05,03,07,49,10.40
2017,05,03,07,50,10.40
2017,05,03,07,51,10.40
2017,05,03,07,52,10.40
2017,05,03,07,53,10.40
2017,05,03,07,54,10.50
2017,05,03,07,55,10.50
2017,05,03,07,56,10.50
2017,05,03,07,57,10.50
2017,05,03,07,58,10.60
2017,05,03,07,59,10.60
2017,05,03,08,00,10.60
2017,05,03,08,01,10.60
2017,05,03,08,02,10.60
2017,05,03,08,03,10.60
2017,05,03,08,04,10.60
2017,05,03,08,05,10.50
2017,05,03,08,06,10.50
2017,05,03,08,07,10.50
2017,05,03,08,08,10.60
2017,05,03,08,09,10.60
2017,05,03,08,10,10.60
2017,05,03,08,11,10.60
2017,05,03,08,12,10.60
2017,05,03,08,13,10.60
2017,05,03,08,14,10.60
2017,05,03,08,15,10.70
2017,05,03,08,16,10.70
2017,05,03,08,17,10.70
2017,05,03,08,18,10.70
2017,05,03,08,19,10.60
2017,05,03,08,20,10.70
2017,05,03,08,21,10.60
2017,05,03,08,22,10.60
2017,05,03,08,23,10.60
2017,05,03,08,24,10.60
2017,05,03,08,25,10.60
2017,05,03,08,26,10.60
2017,05,03,08,27,10.60
2017,05,03,08,28,10.60
2017,05,03,08,29,10.60
2017,05,03,08,30,10.60
2017,05,03,08,31,10.60
2017,05,03,08,32,10.60
2017,05,03,08,33,10.60
2017,05,03,08,34,10.60
2017,05,03,08,35,10.60
2017,05,03,08,36,10.70
2017,05,03,08,37,10.70
2017,05,03,08,38,10.70
2017,05,03,08,39,10.70
2017,05,03,08,40,10.70
2017,05,03,08,41,10.70
2017,05,03,08,42,10.70
2017,05,03,08,43,10.80
2017,05,03,08,44,10.80
2017,05,03,08,45,10.80
2017,05,03,08,46,10.80
2017,05,03,08,47,10.80
2017,05,03,08,48,10.80
2017,05,03,08,49,10.80
2017,05,03,08,50,10.80
2017,05,03,08,51,10.80
2017,05,03,08,52,10.80
2017,05,03,08,53,10.90
2017,05,03,08,54,10.90
2017,05,03,08,55,10.90
2017,05,03,08,56,10.90
2017,05,03,08,57,10.90
2017,05,03,08,58,10.90
2017,05,03,08,59,10.90
2017,05,03,09,00,10.90
2017,05,03,09,01,10.90
2017,05,03,09,02,10.90
2017,05,03,09,03,10.90
2017,05,03,09,04,10.90
2017,05,03,09,05,10.90
2017,05,03,09,06,10.90
2017,05,03,09,07,10.90
2017,05,03,09,08,10.90
2017,05,03,09,09,10.80
2017,05,03,09,10,10.80
2017,05,03,09,11,10.80
2017,05,03,09,12,10.80
2017,05,03,09,13,10.80
2017,05,03,09,14,10.80
2017,05,03,09,15,10.80
2017,05,03,09,16,10.80
2017,05,03,09,17,10.90
2017,05,03,09,18,10.90
2017,05,03,09,19,10.90
2017,05,03,09,20,10.90
2017,05,03,09,21,10.90
2017,05,03,09,22,11.00
2017,05,03,09,23,11.00
2017,05,03,09,24,11.00
2017,05,03,09,25,11.00
2017,05,03,09,26,11.10
2017,05,03,09,27,11.10
2017,05,03,09,28,11.10
2017,05,03,09,29,11.10
2017,05,03,09,30,11.20
2017,05,03,09,31,11.20
2017,05,03,09,32,11.20
2017,05,03,09,33,11.20
2017,05,03,09,34,11.20
2017,05,03,09,35,11.10
2017,05,03,09,36,11.10
2017,05,03,09,37,11.10
2017,05,03,09,38,11.10
2017,05,03,09,39,11.10
2017,05,03,09,40,11.10
2017,05,03,09,41,11.10
2017,05,03,09,42,11.10
2017,05,03,09,43,11.20
2017,05,03,09,44,11.20
2017,05,03,09,45,11.20
2017,05,03,09,46,11.10
2017,05,03,09,47,11.10
2017,05,03,09,48,11.00
2017,05,03,09,49,11.00
2017,05,03,09,50,10.90
2017,05,03,09,51,10.90
2017,05,03,09,52,10.90
2017,05,03,09,53,10.90
2017,05,03,09,54,10.90
2017,05,03,09,55,10.90
2017,05,03,09,56,10.90
2017,05,03,09,57,11.00
2017,05,03,09,58,11.00
2017,05,03,09,59,11.10
2017,05,03,10,00,11.10
2017,05,03,10,01,11.10
2017,05,03,10,02,11.10
2017,05,03,10,03,11.10
2017,05,03,10,04,11.20
2017,05,03,10,05,11.20
2017,05,03,10,06,11.20
2017,05,03,10,07,11.30
2017,05,03,10,08,11.30
2017,05,03,10,09,11.30
2017,05,03,10,10,11.30
2017,05,03,10,11,11.30
2017,05,03,10,12,11.30
2017,05,03,10,13,11.40
2017,05,03,10,14,11.40
2017,05,03,10,15,11.50
2017,05,03,10,16,11.50
2017,05,03,10,17,11.60
2017,05,03,10,18,11.60
2017,05,03,10,19,11.60
2017,05,03,10,20,11.70
2017,05,03,10,21,11.70
2017,05,03,10,22,11.70
2017,05,03,10,23,11.70
2017,05,03,10,24,11.70
2017,05,03,10,25,11.80
2017,05,03,10,26,11.80
2017,05,03,10,27,11.80
2017,05,03,10,28,11.80
2017,05,03,10,29,11.90
2017,05,03,10,30,11.90
2017,05,03,10,31,11.90
2017,05,03,10,32,11.80
2017,05,03,10,33,11.80
2017,05,03,10,34,11.80
2017,05,03,10,35,11.80
2017,05,03,10,36,11.80
2017,05,03,10,37,11.90
2017,05,03,10,38,11.90
2017,05,03,10,39,12.00
2017,05,03,10,40,12.00
2017,05,03,10,41,11.90
2017,05,03,10,42,11.90
2017,05,03,10,43,11.90
2017,05,03,10,44,11.80
2017,05,03,10,45,11.80
2017,05,03,10,46,11.80
2017,05,03,10,47,11.80
2017,05,03,10,48,11.80
2017,05,03,10,49,11.90
2017,05,03,10,50,11.90
2017,05,03,10,51,11.90
2017,05,03,10,52,11.90
2017,05,03,10,53,11.90
2017,05,03,10,54,11.90
2017,05,03,10,55,11.90
2017,05,03,10,56,11.90
2017,05,03,10,57,12.00
2017,05,03,10,58,12.00
2017,05,03,10,59,12.00
2017,05,03,11,00,12.10
2017,05,03,11,01,12.10
2017,05,03,11,02,12.20
2017,05,03,11,03,12.20
2017,05,03,11,04,12.20
2017,05,03,11,05,12.20
2017,05,03,11,06,12.20
2017,05,03,11,07,12.10
2017,05,03,11,08,12.10
2017,05,03,11,09,12.10
2017,05,03,11,10,12.20
2017,05,03,11,11,12.20
2017,05,03,11,12,12.20
2017,05,03,11,13,12.20
2017,05,03,11,14,12.20
2017,05,03,11,15,12.30
2017,05,03,11,16,12.30
2017,05,03,11,17,12.40
2017,05,03,11,18,12.40
2017,05,03,11,19,12.40
2017,05,03,11,20,12.40
2017,05,03,11,21,12.40
2017,05,03,11,22,12.40
2017,05,03,11,23,12.40
2017,05,03,11,24,12.40
2017,05,03,11,25,12.40
2017,05,03,11,26,12.40
2017,05,03,11,27,12.40
2017,05,03,11,28,12.40
2017,05,03,11,29,12.40
2017,05,03,11,30,12.40
2017,05,03,11,31,12.40
2017,05,03,11,32,12.50
2017,05,03,11,33,12.50
2017,05,03,11,34,12.60
2017,05,03,11,35,12.60
2017,05,03,11,36,12.60
2017,05,03,11,37,12.60
2017,05,03,11,38,12.50
2017,05,03,11,39,12.50
2017,05,03,11,40,12.50
2017,05,03,11,41,12.60
2017,05,03,11,42,12.60
2017,05,03,11,43,12.60
2017,05,03,11,44,12.60
2017,05,03,11,45,12.60
2017,05,03,11,46,12.70
2017,05,03,11,47,12.70
2017,05,03,11,48,12.60
2017,05,03,11,49,12.60
2017,05,03,11,50,12.60
2017,05,03,11,51,12.60
2017,05,03,11,52,12.60
2017,05,03,11,53,12.60
2017,05,03,11,54,12.50
2017,05,03,11,55,12.50
2017,05,03,11,56,12.50
2017,05,03,11,57,12.40
2017,05,03,11,58,12.40
2017,05,03,11,59,12.40
2017,05,03,12,00,12.40
2017,05,03,12,01,12.50
2017,05,03,12,02,12.50
2017,05,03,12,03,12.50
2017,05,03,12,04,12.60
2017,05,03,12,05,12.70
2017,05,03,12,06,12.70
2017,05,03,12,07,12.80
2017,05,03,12,08,12.90
2017,05,03,12,09,12.90
2017,05,03,12,10,13.00
2017,05,03,12,11,13.10
2017,05,03,12,12,13.10
2017,05,03,12,13,13.10
2017,05,03,12,14,13.10
2017,05,03,12,15,13.00
2017,05,03,12,16,13.10
2017,05,03,12,17,13.10
2017,05,03,12,18,13.10
2017,05,03,12,19,13.10
2017,05,03,12,20,13.20
2017,05,03,12,21,13.20
2017,05,03,12,22,13.20
2017,05,03,12,23,13.20
2017,05,03,12,24,13.20
2017,05,03,12,25,13.20
2017,05,03,12,26,13.20
2017,05,03,12,27,13.20
2017,05,03,12,28,13.30
2017,05,03,12,29,13.30
2017,05,03,12,30,13.30
2017,05,03,12,31,13.30
2017,05,03,12,32,13.30
2017,05,03,12,33,13.40
2017,05,03,12,34,13.40
2017,05,03,12,35,13.40
2017,05,03,12,36,13.50
2017,05,03,12,37,13.60
2017,05,03,12,38,13.60
2017,05,03,12,39,13.70
2017,05,03,12,40,13.70
2017,05,03,12,41,13.80
2017,05,03,12,42,13.90
2017,05,03,12,43,13.90
2017,05,03,12,44,14.00
2017,05,03,12,45,14.10
2017,05,03,12,46,14.10
2017,05,03,12,47,14.10
2017,05,03,12,48,14.10
2017,05,03,12,49,14.10
2017,05,03,12,50,14.10
2017,05,03,12,51,14.10
2017,05,03,12,52,14.10
2017,05,03,12,53,14.20
2017,05,03,12,54,14.10
2017,05,03,12,55,14.10
2017,05,03,12,56,14.10
2017,05,03,12,57,14.10
2017,05,03,12,58,14.10
2017,05,03,12,59,14.10
2017,05,03,13,00,14.20
2017,05,03,13,01,14.20
2017,05,03,13,02,14.20
2017,05,03,13,03,14.20
2017,05,03,13,04,14.20
2017,05,03,13,05,14.20
2017,05,03,13,06,14.10
2017,05,03,13,07,14.10
2017,05,03,13,08,14.10
2017,05,03,13,09,14.10
2017,05,03,13,10,14.00
2017,05,03,13,11,14.00
2017,05,03,13,12,14.00
2017,05,03,13,13,14.00
2017,05,03,13,14,14.10
2017,05,03,13,15,14.10
2017,05,03,13,16,14.10
2017,05,03,13,17,14.00
2017,05,03,13,18,13.90
2017,05,03,13,19,13.80
2017,05,03,13,20,13.80
2017,05,03,13,21,13.80
2017,05,03,13,22,13.70
2017,05,03,13,23,13.70
2017,05,03,13,24,13.60
2017,05,03,13,25,13.60
2017,05,03,13,26,13.60
2017,05,03,13,27,13.50
2017,05,03,13,28,13.40
2017,05,03,13,29,13.40
2017,05,03,13,30,13.50
2017,05,03,13,31,13.50
2017,05,03,13,32,13.60
2017,05,03,13,33,13.60
2017,05,03,13,34,13.60
2017,05,03,13,35,13.60
2017,05,03,13,36,13.60
2017,05,03,13,37,13.60
2017,05,03,13,38,13.60
2017,05,03,13,39,13.60
2017,05,03,13,40,13.60
2017,05,03,13,41,13.60
2017,05,03,13,42,13.60
2017,05,03,13,43,13.60
2017,05,03,13,44,13.60
2017,05,03,13,45,13.60
2017,05,03,13,46,13.60
2017,05,03,13,47,13.50
2017,05,03,13,48,13.40
2017,05,03,13,49,13.40
2017,05,03,13,50,13.30
2017,05,03,13,51,13.30
2017,05,03,13,52,13.30
2017,05,03,13,53,13.30
2017,05,03,13,54,13.40
2017,05,03,13,55,13.40
2017,05,03,13,56,13.40
2017,05,03,13,57,13.30
2017,05,03,13,58,13.30
2017,05,03,13,59,13.20
2017,05,03,14,00,13.20
2017,05,03,14,01,13.20
2017,05,03,14,02,13.20
2017,05,03,14,03,13.20
2017,05,03,14,04,13.20
2017,05,03,14,05,13.30
2017,05,03,14,06,13.30
2017,05,03,14,07,13.40
2017,05,03,14,08,13.40
2017,05,03,14,09,13.50
2017,05,03,14,10,13.60
2017,05,03,14,11,13.60
2017,05,03,14,12,13.70
2017,05,03,14,13,13.80
2017,05,03,14,14,13.90
2017,05,03,14,15,14.00
2017,05,03,14,16,14.10
2017,05,03,14,17,14.20
2017,05,03,14,18,14.30
2017,05,03,14,19,14.30
2017,05,03,14,20,14.20
2017,05,03,14,21,14.20
2017,05,03,14,22,14.20
2017,05,03,14,23,14.10
2017,05,03,14,24,14.10
2017,05,03,14,25,14.10
2017,05,03,14,26,14.10
2017,05,03,14,27,14.00
2017,05,03,14,28,13.90
2017,05,03,14,29,13.70
2017,05,03,14,30,13.60
2017,05,03,14,31,13.60
2017,05,03,14,32,13.50
2017,05,03,14,33,13.50
2017,05,03,14,34,13.50
2017,05,03,14,35,13.50
2017,05,03,14,36,13.50
2017,05,03,14,37,13.60
2017,05,03,14,38,13.60
2017,05,03,14,39,13.70
2017,05,03,14,40,13.70
2017,05,03,14,41,13.70
2017,05,03,14,42,13.80
2017,05,03,14,43,13.90
2017,05,03,14,44,13.90
2017,05,03,14,45,13.90
2017,05,03,14,46,13.90
2017,05,03,14,47,14.00
2017,05,03,14,48,14.00
2017,05,03,14,49,14.10
2017,05,03,14,50,14.10
2017,05,03,14,51,14.10
2017,05,03,14,52,14.10
2017,05,03,14,53,14.00
2017,05,03,14,54,14.00
2017,05,03,14,55,13.90
2017,05,03,14,56,13.90
2017,05,03,14,57,13.90
2017,05,03,14,58,13.90
2017,05,03,14,59,13.90
2017,05,03,15,00,13.90
2017,05,03,15,01,14.00
2017,05,03,15,02,14.00
2017,05,03,15,03,14.10
2017,05,03,15,04,14.10
2017,05,03,15,05,14.10
2017,05,03,15,06,14.00
2017,05,03,15,07,14.00
2017,05,03,15,08,14.00
2017,05,03,15,09,14.00
2017,05,03,15,10,14.00
2017,05,03,15,11,14.00
2017,05,03,15,12,14.10
2017,05,03,15,13,14.10
2017,05,03,15,14,14.20
2017,05,03,15,15,14.20
2017,05,03,15,16,14.20
2017,05,03,15,17,14.30
2017,05,03,15,18,14.30
2017,05,03,15,19,14.30
2017,05,03,15,20,14.30
2017,05,03,15,21,14.40
2017,05,03,15,22,14.40
2017,05,03,15,23,14.50
2017,05,03,15,24,14.50
2017,05,03,15,25,14.50
2017,05,03,15,26,14.60
2017,05,03,15,27,14.60
2017,05,03,15,28,14.60
2017,05,03,15,29,14.60
2017,05,03,15,30,14.60
2017,05,03,15,31,14.70
2017,05,03,15,32,14.70
2017,05,03,15,33,14.70
2017,05,03,15,34,14.80
2017,05,03,15,35,14.80
2017,05,03,15,36,14.80
2017,05,03,15,37,14.70
2017,05,03,15,38,14.70
2017,05,03,15,39,14.70
2017,05,03,15,40,14.60
2017,05,03,15,41,14.50
2017,05,03,15,42,14.40
2017,05,03,15,43,14.40
2017,05,03,15,44,14.40
2017,05,03,15,45,14.30
2017,05,03,15,46,14.30
2017,05,03,15,47,14.30
2017,05,03,15,48,14.30
2017,05,03,15,49,14.30
2017,05,03,15,50,14.30
2017,05,03,15,51,14.30
2017,05,03,15,52,14.30
2017,05,03,15,53,14.30
2017,05,03,15,54,14.30
2017,05,03,15,55,14.30
2017,05,03,15,56,14.30
2017,05,03,15,57,14.30
2017,05,03,15,58,14.30
2017,05,03,15,59,14.30
2017,05,03,16,00,14.30
2017,05,03,16,01,14.20
2017,05,03,16,02,14.10
2017,05,03,16,03,14.00
2017,05,03,16,04,13.90
2017,05,03,16,05,13.90
2017,05,03,16,06,13.80
2017,05,03,16,07,13.70
2017,05,03,16,08,13.70
2017,05,03,16,09,13.70
2017,05,03,16,10,13.70
2017,05,03,16,11,13.70
2017,05,03,16,12,13.70
2017,05,03,16,13,13.80
2017,05,03,16,14,13.80
2017,05,03,16,15,13.90
2017,05,03,16,16,13.90
2017,05,03,16,17,14.00
2017,05,03,16,18,14.00
2017,05,03,16,19,14.10
2017,05,03,16,20,14.10
2017,05,03,16,21,14.20
2017,05,03,16,22,14.30
2017,05,03,16,23,14.30
2017,05,03,16,24,14.40
2017,05,03,16,25,14.40
2017,05,03,16,26,14.40
2017,05,03,16,27,14.40
2017,05,03,16,28,14.40
2017,05,03,16,29,14.50
2017,05,03,16,30,14.50
2017,05,03,16,31,14.60
2017,05,03,16,32,14.60
2017,05,03,16,33,14.60
2017,05,03,16,34,14.60
2017,05,03,16,35,14.60
2017,05,03,16,36,14.60
2017,05,03,16,37,14.60
2017,05,03,16,38,14.60
2017,05,03,16,39,14.50
2017,05,03,16,40,14.50
2017,05,03,16,41,14.40
2017,05,03,16,42,14.40
2017,05,03,16,43,14.30
2017,05,03,16,44,14.30
2017,05,03,16,45,14.30
2017,05,03,16,46,14.30
2017,05,03,16,47,14.40
2017,05,03,16,48,14.40
2017,05,03,16,49,14.50
2017,05,03,16,50,14.60
2017,05,03,16,51,14.60
2017,05,03,16,52,14.70
2017,05,03,16,53,14.70
2017,05,03,16,54,14.70
2017,05,03,16,55,14.70
2017,05,03,16,56,14.70
2017,05,03,16,57,14.70
2017,05,03,16,58,14.70
2017,05,03,16,59,14.70
2017,05,03,17,00,14.70
2017,05,03,17,01,14.70
2017,05,03,17,02,14.70
2017,05,03,17,03,14.70
2017,05,03,17,04,14.70
2017,05,03,17,05,14.70
2017,05,03,17,06,14.70
2017,05,03,17,07,14.70
2017,05,03,17,08,14.70
2017,05,03,17,09,14.80
2017,05,03,17,10,14.80
2017,05,03,17,11,14.80
2017,05,03,17,12,14.80
2017,05,03,17,13,14.80
2017,05,03,17,14,14.80
2017,05,03,17,15,14.80
2017,05,03,17,16,14.80
2017,05,03,17,17,14.80
2017,05,03,17,18,14.80
2017,05,03,17,19,14.80
2017,05,03,17,20,14.80
2017,05,03,17,21,14.90
2017,05,03,17,22,14.90
2017,05,03,17,23,14.90
2017,05,03,17,24,15.00
2017,05,03,17,25,15.00
2017,05,03,17,26,15.00
2017,05,03,17,27,15.00
2017,05,03,17,28,15.00
2017,05,03,17,29,15.00